Weather History for Punta Gorda, FL

Change the Weather History Date:

Sunday, January 13, 2013

  Actual Average Record
Temperature  
Mean Temperature 74 °F -  
Max Temperature 84 °F 71 °F 84 °F (2005)
Min Temperature 63 °F 48 °F 32 °F (2011)
Cooling Degree Days 8    
Growing Degree Days 24 (Base 50)    
Moisture  
Dew Point 63 °F    
Average Humidity 77    
Maximum Humidity 97    
Minimum Humidity 47    
Precipitation  
Precipitation 0.00 in - - ()
Sea Level Pressure  
Sea Level Pressure 30.12 in    
Wind  
Wind Speed 5 mph (SE)    
Max Wind Speed 10 mph    
Max Gust Speed -    
Visibility 10 miles    
Events      
Averages and records for this station are not official NWS values.
T = Trace of Precipitation, MM = Missing Value Source: NWS Daily Summary

Daily Weather History Graph

Daily Weather History Graph

Search for Another Location

Airport:

Trip Planner

Search our weather history database for the weather conditions in past years. The results will help you decide how hot, cold, wet, or windy it might be!

Date:

Astronomy

Jan. 13, 2013 Rise Set
Actual Time 7:18 AM EST 5:55 PM EST
Civil Twilight 6:53 AM EST 6:20 PM EST
Nautical Twilight 6:24 AM EST 6:48 PM EST
Astronomical Twilight 5:56 AM EST 7:17 PM EST
Moon 8:31 AM EST (1/13) 8:14 PM EST (1/13)
Length of Visible Light 11h 26m
Length of Day
10h 36m
Waxing Crescent, 5% of the Moon is Illuminated
Jan 13
Waxing Crescent
Jan 18
First Quarter
Jan 26
Full
Feb 3
Last Quarter
Feb 10
New

Hourly Weather History & Observations

Time (EST) Temp. Heat Index Dew Point Humidity Pressure Visibility Wind Dir Wind Speed Gust Speed Precip Events Conditions
12:53 AM 66.0 °F - 62.1 °F 87% 30.12 in 10.0 mi ESE 4.6 mph - N/A   Partly Cloudy
1:53 AM 64.9 °F - 62.1 °F 90% 30.12 in 10.0 mi East 3.5 mph - N/A   Clear
2:53 AM 64.0 °F - 62.1 °F 93% 30.11 in 10.0 mi ESE 4.6 mph - N/A   Clear
3:53 AM 64.0 °F - 62.1 °F 93% 30.11 in 10.0 mi East 4.6 mph - N/A   Clear
4:53 AM 63.0 °F - 62.1 °F 97% 30.09 in 10.0 mi ESE 6.9 mph - N/A   Clear
5:53 AM 64.0 °F - 62.1 °F 93% 30.09 in 10.0 mi ESE 4.6 mph - N/A   Clear
6:53 AM 63.0 °F - 61.0 °F 93% 30.10 in 8.0 mi ESE 4.6 mph - N/A   Clear
7:53 AM 64.9 °F - 63.0 °F 93% 30.10 in 10.0 mi ESE 6.9 mph - N/A   Clear
8:53 AM 70.0 °F - 66.0 °F 87% 30.11 in 10.0 mi ESE 8.1 mph - N/A   Clear
9:53 AM 75.9 °F - 64.9 °F 69% 30.16 in 10.0 mi SE 10.4 mph - N/A   Clear
10:53 AM 79.0 °F - 64.9 °F 62% 30.17 in 10.0 mi SE 6.9 mph - N/A   Clear
11:53 AM 81.0 °F 82.2 °F 63.0 °F 54% 30.16 in 10.0 mi ESE 9.2 mph - N/A   Partly Cloudy
12:53 PM 82.9 °F 83.7 °F 62.1 °F 49% 30.12 in 10.0 mi SE 8.1 mph - N/A   Scattered Clouds
1:53 PM 84.0 °F 84.9 °F 63.0 °F 49% 30.09 in 10.0 mi Variable 4.6 mph - N/A   Partly Cloudy
2:53 PM 82.9 °F 83.3 °F 61.0 °F 47% 30.09 in 10.0 mi SSE 9.2 mph - N/A   Scattered Clouds
3:53 PM 81.0 °F 82.2 °F 63.0 °F 54% 30.10 in 10.0 mi SW 9.2 mph - N/A   Partly Cloudy
4:53 PM 78.1 °F - 64.9 °F 64% 30.12 in 10.0 mi WSW 6.9 mph - N/A   Scattered Clouds
5:53 PM 75.0 °F - 66.9 °F 76% 30.13 in 10.0 mi WSW 5.8 mph - N/A   Partly Cloudy
6:53 PM 73.0 °F - 66.0 °F 79% 30.13 in 10.0 mi Calm Calm - N/A   Mostly Cloudy
7:53 PM 71.1 °F - 66.0 °F 84% 30.12 in 10.0 mi Calm Calm - N/A   Scattered Clouds
8:53 PM 70.0 °F - 66.0 °F 87% 30.13 in 10.0 mi ESE 3.5 mph - N/A   Mostly Cloudy
9:53 PM 70.0 °F - 64.9 °F 84% 30.13 in 10.0 mi SE 6.9 mph - N/A   Clear
10:53 PM 68.0 °F - 62.1 °F 81% 30.15 in 10.0 mi SSE 5.8 mph - N/A   Mostly Cloudy
11:53 PM 64.9 °F - 61.0 °F 87% 30.16 in 10.0 mi Calm Calm - N/A   Clear